NN5DX-12 Weather Reports


time (UTC)temp
C
wind
direction
speed
KPH
gust
KPH
rain 1hr
cm
rain 24hr
cm
rain mn
cm
humidity
%
barometer
mb
20260906231017 -17 23 4.8 11.3 0.00 0.30 0.00
20260906230017 -17 135 8.0 20.9 0.00 0.30 0.00
20260906225017 -17 135 6.4 14.5 0.00 0.30 0.00
20260906224017 -17 135 6.4 17.7 0.00 0.30 0.00
20260906223017 -17 135 3.2 14.5 0.00 0.30 0.00
20260906222017 -17 135 6.4 19.3 0.00 0.30 0.00
20260906221017 -17 135 3.2 14.5 0.00 0.30 0.00
20260906220017 -17 113 3.2 9.7 0.00 0.30 0.00
20260906215017 -17 135 4.8 16.1 0.00 0.30 0.00
20260906214017 -17 113 8.0 22.5 0.00 0.30 0.00
20260906213017 -17 135 8.0 17.7 0.00 0.30 0.00
20260906212017 -17 135 4.8 16.1 0.00 0.30 0.00
20260906211017 -17 135 3.2 14.5 0.00 0.30 0.00
20260906210017 -17 113 4.8 17.7 0.00 0.30 0.00
20260906205017 -17 135 6.4 17.7 0.00 0.30 0.00
20260906204017 -17 90 4.8 12.9 0.00 0.30 0.00
20260906203017 -17 135 6.4 17.7 0.00 0.30 0.00
20260906202017 -17 90 8.0 17.7 0.00 0.30 0.00
20260906201017 -17 113 6.4 16.1 0.00 0.30 0.00
20260906200017 -17 135 6.4 24.1 0.00 0.30 0.00
20260906195017 -17 135 4.8 17.7 0.00 0.30 0.00
20260906194017 -17 90 6.4 17.7 0.00 0.30 0.00
20260906193017 -17 135 8.0 19.3 0.00 0.30 0.00
20260906192017 -17 158 8.0 17.7 0.00 0.30 0.00
20260906191016 -17 135 8.0 22.5 0.00 0.30 0.00
20260906190017 -17 90 8.0 19.3 0.00 0.30 0.00
20260906185017 -17 135 4.8 20.9 0.00 0.30 0.00
20260906184016 -17 135 8.0 19.3 0.00 0.30 0.00
20260906183017 -17 90 6.4 16.1 0.00 0.30 0.00
20260906182016 -17 113 4.8 11.3 0.00 0.30 0.00
20260906181017 -17 113 4.8 19.3 0.00 0.30 0.00
20260906180016 -17 113 3.2 9.7 0.00 0.30 0.00
20260906175017 -17 90 8.0 16.1 0.00 0.30 0.00
20260906174016 -17 135 4.8 12.9 0.00 0.30 0.00
20260906173016 -17 23 4.8 16.1 0.00 0.30 0.00
20260906172017 -17 113 4.8 19.3 0.00 0.30 0.00
20260906171016 -17 113 4.8 12.9 0.00 0.30 0.00
20260906170017 -17 113 6.4 14.5 0.00 0.30 0.00
20260906165017 -17 90 3.2 9.7 0.00 0.30 0.00
20260906164017 -17 135 8.0 17.7 0.00 0.30 0.00
20260906163017 -17 90 3.2 9.7 0.00 0.30 0.00
20260906162016 -17 158 1.6 6.4 0.00 0.30 0.00
20260906161016 -17 45 1.6 6.4 0.00 0.30 0.00
20260906160017 -17 90 1.6 11.3 0.00 0.30 0.00
20260906155016 -17 135 4.8 8.0 0.00 0.30 0.00
20260906154017 -17 135 1.6 4.8 0.00 0.30 0.00
20260906153016 -17 113 3.2 6.4 0.00 0.30 0.00
20260906152016 -17 135 3.2 6.4 0.00 0.30 0.00
20260906151016 22 113 1.6 4.8 0.00 0.30 0.00 43 1029.9
20260906150016 22 0.0 3.2 0.00 0.30 0.00 45 1030.2
20260906145017 22 0.0 3.2 0.00 0.30 0.00 45 1029.6
20260906144016 22 0.0 0.0 0.00 0.30 0.00 43 1030.2
20260906143016 21 0.0 0.0 0.00 0.30 0.00 52 1029.9
20260906142016 21 0.0 0.0 0.00 0.30 0.00 54 1029.9
20260906141016 20 0.0 0.0 0.00 0.30 0.00 54 1029.8
20260906140016 19 0.0 0.0 0.00 0.30 0.00 58 1029.5
20260906135016 17 0.0 0.0 0.00 0.30 0.00 64 1028.4
20260906134016 16 0.0 0.0 0.00 0.30 0.00 63 1029.3
20260906133016 13 0.0 0.0 0.00 0.30 0.00 74 1028.3
20260906132016 11 0.0 0.0 0.00 0.30 0.00 79 1027.0
20260906131016 11 0.0 0.0 0.00 0.30 0.00 77 1026.7
20260906130016 11 0.0 0.0 0.00 0.30 0.00 77 1026.6
20260906125016 10 0.0 0.0 0.00 0.30 0.00 79 1026.6
20260906124016 10 0.0 0.0 0.00 0.30 0.00 78 1026.5
20260906123016 10 0.0 0.0 0.00 0.30 0.00 77 1026.5
20260906122016 10 0.0 0.0 0.00 0.30 0.00 77 1026.5
20260906121016 10 0.0 0.0 0.00 0.30 0.00 79 1027.1
20260906120016 10 0.0 0.0 0.00 0.30 0.00 80 1027.1
20260906115016 10 0.0 0.0 0.00 0.30 0.00 79 1027.0
20260906114016 11 0.0 0.0 0.00 0.30 0.00 79 1027.6
20260906113016 11 0.0 0.0 0.00 0.30 0.00 78 1027.4
20260906112016 10 0.0 0.0 0.00 0.30 0.00 82 1026.9
20260906111016 10 0.0 0.0 0.00 0.30 0.00 81 1026.6
20260906110016 10 0.0 0.0 0.00 0.30 0.00 83 1026.6
20260906105016 10 0.0 0.0 0.00 0.30 0.00 85 1026.6
20260906104016 10 0.0 0.0 0.00 0.30 0.00 86 1026.7
20260906103016 10 0.0 0.0 0.00 0.30 0.00 84 1026.6
20260906102016 10 0.0 0.0 0.00 0.30 0.00 84 1026.5
20260906101016 10 0.0 0.0 0.00 0.30 0.00 86 1026.6
20260906100016 10 0.0 0.0 0.00 0.30 0.00 85 1026.6
20260906095016 10 0.0 0.0 0.00 0.30 0.00 87 1026.6
20260906094016 10 0.0 0.0 0.00 0.30 0.00 87 1026.3
20260906093016 10 0.0 0.0 0.00 0.30 0.00 88 1026.4
20260906092016 10 0.0 0.0 0.00 0.30 0.00 89 1026.3
20260906091016 10 0.0 0.0 0.00 0.30 0.00 90 1026.7
20260906090016 10 0.0 0.0 0.00 0.30 0.00 90 1026.6
20260906085016 10 0.0 0.0 0.00 0.30 0.00 91 1026.6
20260906084016 10 0.0 0.0 0.00 0.30 0.00 92 1026.5
20260906083016 10 0.0 0.0 0.00 0.30 0.00 92 1026.4
20260906082016 10 0.0 0.0 0.00 0.30 0.00 93 1026.5
20260906081016 10 0.0 0.0 0.00 0.30 0.00 93 1026.5
20260906080016 10 0.0 0.0 0.00 0.30 0.00 94 1026.6
20260906075016 10 0.0 0.0 0.00 0.30 0.00 94 1026.6
20260906074016 10 0.0 0.0 0.00 0.30 0.00 95 1026.1
20260906073015 10 0.0 0.0 0.00 0.30 0.00 95 1026.2
20260906072015 10 0.0 0.0 0.00 0.30 0.00 95 1026.1
20260906071015 10 0.0 0.0 0.00 0.30 0.00 95 1027.1
20260906070015 10 0.0 0.0 0.00 0.30 0.00 95 1027.0
20260906065016 10 0.0 0.0 0.00 0.30 0.00 94 1027.0
20260906064016 10 0.0 0.0 0.00 0.30 0.00 94 1027.1
20260906063015 10 0.0 0.0 0.00 0.30 0.00 94 1027.2
20260906062015 10 0.0 0.0 0.00 0.30 0.00 94 1027.3
20260906061016 10 0.0 0.0 0.00 0.30 0.00 93 1027.9
20260906060015 10 0.0 0.0 0.00 0.30 0.30 93 1027.9
20260906055016 11 0.0 0.0 0.00 0.30 0.30 93 1028.4
20260906054015 11 0.0 0.0 0.00 0.30 0.30 92 1027.0
20260906053015 11 0.0 0.0 0.03 0.33 0.30 91 1027.5
20260906052015 12 0.0 0.0 0.03 0.33 0.30 92 1027.7
20260906051015 12 0.0 0.0 0.05 0.33 0.30 91 1028.3
20260906050015 12 0.0 0.0 0.23 0.33 0.30 91 1028.4
20260906045015 13 0.0 0.0 0.25 0.33 0.30 91 1028.4
20260906044015 13 0.0 3.2 0.25 0.33 0.30 89 1028.6
20260906043015 13 0.0 0.0 0.25 0.33 0.28 88 1029.2
20260906042015 13 0.0 1.6 0.25 0.33 0.28 84 1029.4
20260906041016 15 0.0 3.2 0.23 0.33 0.25 77 1030.3
20260906040016 18 315 3.2 14.5 0.05 0.15 0.08 54 1031.8
20260906035015 19 315 1.6 8.0 0.03 0.13 0.05 46 1031.5
20260906034016 19 0.0 3.2 0.03 0.13 0.05 44 1031.0
20260906033015 18 0.0 0.0 0.00 0.13 0.03 44 1030.8
20260906032016 18 0.0 1.6 0.00 0.13 0.03 45 1030.1
20260906031015 17 0.0 1.6 0.00 0.13 0.03 47 1029.6
20260906030016 17 0.0 0.0 0.00 0.13 0.03 47 1029.2
20260906025015 17 0.0 0.0 0.03 0.13 0.03 47 1029.2
20260906024015 17 0.0 0.0 0.03 0.13 0.03 46 1027.9
20260906023015 17 0.0 0.0 0.03 0.13 0.03 46 1028.0
20260906022015 17 0.0 0.0 0.03 0.13 0.03 46 1027.9
20260906021015 17 0.0 0.0 0.03 0.13 0.03 45 1025.2
20260906020015 18 0.0 0.0 0.03 0.13 0.03 43 1025.5
20260906015015 18 0.0 0.0 0.00 0.10 0.00 41 1025.4
20260906014015 19 0.0 1.6 0.00 0.10 0.00 41 1023.7
20260906013015 20 0.0 0.0 0.00 0.10 0.00 39 1024.1
20260906012015 21 0.0 0.0 0.00 0.10 0.00 36 1024.6
20260906011015 21 0.0 1.6 0.00 0.10 0.00 34 1024.5
20260906010017 22 0.0 1.6 0.00 0.10 0.00 33 1024.7
20260906005015 22 0.0 1.6 0.00 0.10 0.00 32 1025.2
20260906004017 22 135 1.6 4.8 0.00 0.10 0.00 32 1025.3
20260906003015 23 0.0 1.6 0.00 0.10 0.00 32 1025.3
20260906002017 23 0.0 3.2 0.00 0.10 0.00 31 1025.3
20260906001015 23 90 3.2 11.3 0.00 0.10 0.00 31 1025.9
20260906000017 23 113 3.2 11.3 0.00 0.10 0.00 30 1025.9
20260905235017 23 135 1.6 9.7 0.00 0.10 0.00 30 1025.8
20260905234017 24 135 6.4 11.3 0.00 0.10 0.00 29 1025.7
20260905233017 24 0.0 3.2 0.00 0.10 0.00 29 1026.2
20260905232017 24 0.0 3.2 0.00 0.10 0.00 29 1026.2